Regional Weather Roundup
Issued by NWS

Home | Current Version | Previous Version | Text Only | Print | Product List | Glossary On
Versions: 1 2 3 4 5 6 7 8 9 10 11 12 13 14 15 16 17 18 19 20 21 22 23 24 25 26 27 28 29 30 31 32 33 34 35 36 37 38 39 40 41 42 43 44 45 46 47 48 49 50
000
ASUS43 KMPX 210310
RWRMN
WEATHER ROUNDUP FOR MINNESOTA
NATIONAL WEATHER SERVICE TWIN CITIES/CHANHASSEN MN
1000 PM CDT MON OCT 20 2014


NOTE: "FAIR" INDICATES FEW OR NO CLOUDS BELOW 12,000 FEET WITH NO
SIGNIFICANT WEATHER AND/OR OBSTRUCTIONS TO VISIBILITY. N/A MEANS
CURRENT SKY AND/OR WEATHER CONDITIONS ARE NOT AVAILABLE.

MNZ060>063-068>070-210400-
   Twin Cities Metro

CITY           SKY/WX    TMP DP  RH WIND       PRES   REMARKS
TWIN CITIES    CLEAR     50  40  68 NE6       30.07R
ST PAUL        CLEAR     47  39  74 CALM      30.08R
CRYSTAL        CLEAR     48  39  71 NE3       30.07R
BLAINE         CLEAR     46  39  76 CALM      30.08R
LAKEVILLE      CLEAR     45  37  76 CALM      30.06R
EDEN PRAIRIE   CLEAR     50  40  68 NE7       30.06R
SOUTH ST PAUL  CLEAR     50  40  68 NE3       30.07R
LAKE ELMO      FAIR      45  39  81 NE3       30.08R
$$
MNZ001>005-007-008-013>017-022>024-027-028-210400-
   Northwest Minnesota

CITY           SKY/WX    TMP DP  RH WIND       PRES   REMARKS
BEMIDJI        CLEAR     35  34  96 E6        30.09R WCI  30
HALLOCK        CLEAR     45  37  76 SE9       30.05R
ROSEAU         CLEAR     43  36  75 E9        30.08S
WARROAD        CLEAR     41  37  87 E8        30.10R
THIEF RVR FALL CLEAR     41  36  81 E7        30.07R
CROOKSTON      CLEAR     45  37  76 E8        30.06S
FOSSTON        CLEAR     36  27  69 CALM      30.07S
DETROIT LAKES  FAIR      46  37  71 E3        30.07R
MOORHEAD       CLEAR     45  37  76 E7        30.05S
PARK RAPIDS    CLEAR     43  39  86 E5        30.08R
MAHNOMEN       FAIR      39  33  80 E6        30.06R
$$
MNZ006-009>011-018-025>026-210400-
   North Central Minnesota

CITY           SKY/WX    TMP DP  RH WIND       PRES   REMARKS
BAUDETTE       CLEAR     36  33  89 E6        30.11R
FLAG ISLAND    CLEAR     45  37  76 E5        30.09S
INTL FALLS     CLOUDY    44  36  73 E6        30.12R
WASKISH        CLEAR     34  32  93 CALM      30.10R
BIG FORK       CLEAR     37  34  87 CALM      30.11R
LONGVILLE      CLEAR     36  34  93 CALM      30.09S
GRAND RAPIDS   PTCLDY    37  34  87 CALM      30.10R
CRANE LAKE     CLOUDY    41  36  81 CALM      30.15R
ORR            CLOUDY    43  34  70 CALM      30.10R
COOK           CLOUDY    45  37  76 NE3       30.12R
WALKER         FAIR      42  38  87 E7        30.09R
$$
MNZ012-019>021-037-210400-
   Northeast Minnesota

CITY           SKY/WX    TMP DP  RH WIND       PRES   REMARKS
DULUTH         CLOUDY    46  35  65 NE6       30.10R
ELY            CLOUDY    43  36  75 NE6       30.12R
HIBBING        CLOUDY    46  35  65 NE5       30.10S
EVELETH        MOCLDY    43  34  70 NE6       30.11S
DULUTH HARBOR  CLOUDY    50  41  71 N9        30.11R
TWO HARBORS    CLOUDY    48  27  43 NE5       30.09R
SILVER BAY     CLEAR     46  36  66 N3        30.09R
GRAND MARAIS     N/A     44  33  65 CALM      30.14R
G MARAIS ARPRT CLOUDY    37  28  70 N10G17    30.11R
$$
MNZ029>031-032-039>041-046>048-054>057-064-210400-
   West Central Minnesota

CITY           SKY/WX    TMP DP  RH WIND       PRES   REMARKS
FERGUS FALLS   CLEAR     45  34  65 E5        30.06S
WHEATON        CLEAR     43  36  75 E3        30.07R
MORRIS         CLEAR     48  37  66 CALM      30.04R
ALEXANDRIA     CLEAR     45  37  73 NE3       30.07R
ELBOW LAKE     FAIR      50  38  63 E7        30.05R
WADENA         CLEAR     45  36  70 E6        30.07S
GLENWOOD       CLEAR     46  37  71 N6        30.06S
APPLETON       CLEAR     45  36  70 NE3       30.05R
BENSON         CLEAR     46  37  71 E6        30.05R
ORTONVILLE     CLEAR     50  39  66 NE5       30.05R
MADISON        CLEAR     45  37  76 CALM      30.05R
WILLMAR        FAIR      45  37  76 NE3       30.06S
$$
MNZ033>034-036-042>043-049>051-058-059-210400-
   Central Minnesota

CITY           SKY/WX    TMP DP  RH WIND       PRES   REMARKS
ST CLOUD       CLEAR     49  38  65 E5        30.08R
SAUK CENTRE    FAIR      43  37  77 E5        30.07R
PAYNESVILLE    CLEAR     40  36  86 CALM      30.07R
AITKIN         CLEAR     36  30  80 CALM      30.08S
PINE RIVER     CLEAR     37  36  93 CALM      30.12S
BRAINERD       CLEAR     41  38  89 NE3       30.09R
STAPLES        CLEAR     45  37  76 E3        30.08R
LONG PRAIRIE   FAIR      43  36  75 NE3       30.07S
LITTLE FALLS   CLEAR     45  37  76 NE5       30.09R
LITCHFIELD     CLEAR     48  41  76 E3        30.07R
BUFFALO        CLEAR     46  38  73 NE7       30.08R
MAPLE LAKE     CLEAR     46  40  82 NE6       30.08R
$$
MNZ037-044-045-052-053-210400-
   East Central Minnesota

CITY           SKY/WX    TMP DP  RH WIND       PRES   REMARKS
PRINCETON      CLEAR     45  37  76 NE3       30.09R
MORA           CLEAR     39  34  81 CALM      30.10S
CAMBRIDGE      CLEAR     45  36  70 CALM      30.07R
RUSH CITY      PTCLDY    40  36  84 CALM      30.08S
MOOSE LAKE     CLOUDY    46  36  66 NE5       30.08S
HINCKLEY       FAIR      39  36  87 N6        30.09S
CLOQUET        CLOUDY    46  36  66 NE5       30.10R
MCGREGOR       CLEAR     36  32  87 CALM      30.10R
$$
MNZ071>073-080-081-089-090-097-098-210400-
   Southwest Minnesota

CITY           SKY/WX    TMP DP  RH WIND       PRES   REMARKS
MONTEVIDEO     CLEAR     46  37  71 CALM      30.06R
GRANITE FALLS  CLEAR     42  34  75 CALM      30.06R
CANBY          CLEAR     42  37  81 CALM      30.07R
MARSHALL       CLEAR     41  30  65 W5        30.04S
REDWOOD FALLS  CLEAR     54  39  57 N3        30.04S
OLIVIA         CLEAR     50  37  62 E3        30.04S
PIPESTONE      CLEAR     50  36  57 CALM      30.06R
WINDOM         CLEAR     46  36  66 CALM      30.05S
WORTHINGTON    CLEAR     45  34  65 CALM      30.07R
JACKSON        CLEAR     43  34  70 CALM      30.06R
TRACY          CLEAR     46  37  71 CALM      30.05S
SLAYTON        CLEAR     43  35  72 CALM      30.06S
$$
MNZ065>067-074>077-082>085-091>093-210400-
   South Central Minnesota

CITY           SKY/WX    TMP DP  RH WIND       PRES   REMARKS
MANKATO        CLEAR     54  36  50 E7        30.05S
NEW ULM        CLEAR     52  39  62 NE5       30.05R
ST JAMES       CLEAR     45  36  70 CALM      30.05S
FAIRMONT       CLEAR     50  36  57 MISG      30.04S
GLENCOE        CLEAR     47  40  75 CALM      30.06R
FARIBAULT      CLEAR     43  37  81 CALM      30.06R
OWATONNA       CLEAR     48  37  66 NE5       30.05S
WASECA         CLEAR     45  34  65 NE6       30.07R
ALBERT LEA     CLEAR     48  39  71 CALM      30.05R
$$
MNZ078>079-086>088-094>096-210400-
   Southeast Minnesota

CITY           SKY/WX    TMP DP  RH WIND       PRES   REMARKS
ROCHESTER      CLEAR     48  40  73 NE8       30.06R
RED WING       CLEAR     46  39  76 SE5       30.06R
STANTON        CLEAR     44  38  79 NE6       30.05R
DODGE CENTER   CLEAR     46  39  76 NE3       30.06R
WINONA         CLEAR     46  41  81 CALM      30.06R
AUSTIN         CLEAR     46  39  76 NE3       30.05R
PRESTON        CLEAR     46  39  76 NE5       30.06R
$$
ABBREVIATIONS USED IN REMARKS
   TC - TEMPERATURES IN CELSIUS
  WCI - WIND CHILL INDEX
   HX - HEAT INDEX
  VSB - VISIBILITY
$$



USA.gov is the U.S. government's official web portal to all federal, state and local government web resources and services.